Tracking 35275 objects as of 8-Sep-2026
HD Live streaming from Space Station
objects crossing your sky now

COSMOS 1405 DEB


COSMOS 1405 DEB is no longer on orbit


NORAD ID: 14605
Int'l Code: 1982-088J
Launch date: September 4, 1982
Source: Commonwealth of Independent States (former USSR) (CIS)
Launch site: TYURATAM MISSILE AND SPACE COMPLEX (TTMTR)
Decay date: 1984-02-19

Note: This is SATELLITE DEBRIS
Your satellite tracking list
Your tracking list is empty




NASA's NSSDC Master Catalog

Two Line Element Set (TLE):
1 14605U 82088  J 84048.29406588  .07287640 +32256-4 +91703-3 0  9997
2 14605 064.9502 273.7521 0012040 290.2245 069.7712 16.35363599008967
Source of the keplerian elements: AFSPC